{"data":{"norad_id":69721,"epoch":"2026-09-19T19:58:23.410560Z","epoch_age_seconds":79301,"freshness":"FRESH","line1":"1 69721U 26147T   26262.83221540  .00020541  00000+0  63660-3 0  9993","line2":"2 69721  97.2846 299.2355 0001354  92.0246 268.1152 15.33457147 14138","mean_motion":15.33457147,"eccentricity":0.0001354,"inclination_deg":97.2846,"raan_deg":299.2355,"arg_perigee_deg":92.0246,"mean_anomaly_deg":268.1152,"bstar":0.0006366,"rev_number":1413,"period_min":93.90546079603,"perigee_km":464.58040438867,"apogee_km":466.43366319302,"semimajor_km":6843.6440337908,"source":"CELESTRAK","updated_at":"2026-09-20T09:00:44.284315Z"}}